Regional Weather Roundup
Issued by NWS

Home | Current Version | Previous Version | Text Only | Print | Product List | Glossary On
Versions: 1 2 3 4 5 6 7 8 9 10 11 12 13 14 15 16 17 18 19 20 21 22 23 24 25 26 27 28 29 30 31 32 33 34 35 36 37 38 39 40 41 42 43 44 45 46 47 48 49 50
000
ASHW40 PHFO 280543
RWRHI

WEATHER ROUNDUP FOR HAWAII
NATIONAL WEATHER SERVICE HONOLULU HI
700 PM HST TUE JUN 27 2017

THIS IS AN AUTOMATED REPORT THAT HAS NOT BEEN QUALITY CONTROLLED.

NOTE..."FAIR" INDICATES FEW OR NO CLOUDS BELOW 12,000 FEET WITH NO
SIGNIFICANT WEATHER AND/OR OBSTRUCTIONS TO VISIBILITY.

* - THESE SITES REPORT LIMITED FIELDS

HIZ001>004-280600-
KAUAI-NIIHAU-

CITY           SKY/WX    TMP DP  RH WIND       PRES   REMARKS
LIHUE APT      CLOUDY    80  69  69 NE15      30.09S
PORT ALLEN*    NOT AVBL
POIPU*         NOT AVBL
PRINCEVILLE*   NOT AVBL
KOKOLE POINT*  NOT AVBL
MOLOAA DAIRY*    N/A     79 -17   2 E6G12       N/A
WAIMEA HTS*      N/A     79  61  53 NE5G15      N/A
PUU OPAE*      NOT AVBL
PUU LUA*       NOT AVBL
MAKAHA RIDGE*    N/A     75  64  69 SW2         N/A
$$

HIZ005>011-280600-
OAHU-

CITY           SKY/WX    TMP DP  RH WIND       PRES   REMARKS
HONOLULU       MOCLDY    80  65  59 NE16      30.06R
KALAELOA       PTCLDY    81  63  54 NE8       30.07R
KANEOHE MCB    MOCLDY    81  69  67 E10       30.05
WHEELER FIELD  FAIR      77  65  68 E8        30.07R
BELLOWS*       NOT AVBL
KAHUKU*        NOT AVBL
WHEELER*       NOT AVBL
WAIANAE HARBOR NOT AVBL
DILLINGHAM*      N/A     81  66  61 SW5G14      N/A
KAHUKU TRN*      N/A     84  75  74 W7G18       N/A  HX  92
KAWAILOA*        N/A     73  64  73 E8G16       N/A
KII*             N/A     79  70  73 E18         N/A
MAKUA RANGE*     N/A     88  72  58 W9G21       N/A  HX  94
OAHU FOREST NW   N/A     72  64  78 E7G18       N/A
SCHOFIELD BRK*   N/A     82  70  65 MISG        N/A
SCHOFIELD S*   NOT AVBL
WAIANAE VLY*     N/A     75  64  69 NW2         N/A
KUAOKALA*        N/A     73  64  73 E15G25      N/A
HONOULIUULI*   NOT AVBL
MOKUOLOE IS*   NOT AVBL
PALEHUA*         N/A     66  61  82 NE9G17      N/A
WAIAWA PHB*    NOT AVBL
$$

HIZ012>013-280600-
MOLOKAI-

CITY           SKY/WX    TMP DP  RH WIND       PRES   REMARKS
MOLOKAI AIRPT  PTCLDY    79  67  66 NE10G21   30.07R
KALAUPAPA      NOT AVBL
MAKAPULAPAI*     N/A     79  66  65 E18G26      N/A
MOLOKAI 1*       N/A     68  57  68 E3G15       N/A
PUU ALII*        N/A     64  62  92 NE3G10      N/A
$$

HIZ016-280600-
KAHOOLAWE-

CITY           SKY/WX    TMP DP  RH WIND       PRES   REMARKS
KAHOOLAWE*     NOT AVBL
HAKIOAWA*        N/A     73  66  78 MISG      30.48R
HONOKANAIA*      N/A     82  67  59 NE16G32   29.97S
KANELOA*         N/A     79  66  65 E18G35    30.11
KEALIALALO*    NOT AVBL
LUA MAKIKA*    NOT AVBL
$$

HIZ014>015-280600-
LANAI-

CITY           SKY/WX    TMP DP  RH WIND       PRES   REMARKS
LANAI CITY     FAIR      72  64  78 NE16      30.12R
LANAI 1*         N/A     72 N/A N/A NE16        N/A
$$

HIZ017>028-280600-
MAUI-

CITY           SKY/WX    TMP DP  RH WIND       PRES   REMARKS
KAHULUI        PTCLDY    79  65  62 NE18G28   30.04R
KAPALUA-W MAUI NOT AVBL
HANA AIRPORT   CLOUDY    77  66  69 E3        30.12S
HANA*            N/A     79 N/A N/A E6G12       N/A
HALEAKALA SUMM   N/A     46  16  29 E23G36      N/A
MAALAEA BAY*   NOT AVBL
HALEAKALA*     NOT AVBL
KAUPO GAP*     NOT AVBL
KULA 1*          N/A     59  56  91 SW2G8       N/A
$$

HIZ023>026-280600-
BIG ISLAND OF HAWAII COAST AND LOWER SLOPES-

CITY           SKY/WX    TMP DP  RH WIND       PRES   REMARKS
KAILUA KONA    MOCLDY    81  70  69 W6        30.01R
HILO           CLOUDY    76  71  85 CALM      30.07S
HONOKAA*         N/A     72 N/A N/A VRB1        N/A
KAWAIHAE MWT*    N/A     82 N/A N/A E13G30      N/A
KAWAIHAE*        N/A     82 N/A N/A E13       30.01S
SOUTH POINT*     N/A     75 N/A N/A N16G26      N/A
UPOLU AIRPORT* NOT AVBL
KAMUELA*         N/A     66  63  88 NE16      30.15S
HAKALAU*         N/A     55  44  66 SW3         N/A
KALOKO-HONOKO*   N/A     81  70  69 W3        30.01
PALI 2*          N/A     66  59  77 SW18G29     N/A
KEALAKOMO*       N/A     81  66  61 NE17G24     N/A
KAUPULEHU*       N/A     73  68  83 SW7         N/A
KAPAPALA*        N/A     71  66  85 SW2G14      N/A
LOWER KAHUKU*    N/A     64  63  94 NE2G8       N/A
PUHE CS*         N/A    N/A N/A N/A E16G31      N/A
PUHO CS*         N/A     81  66  60 NW3G9       N/A
PTA KEAMUKU*   NOT AVBL
WAIKOLOA*        N/A     75  63  64 E18G26      N/A
$$

HIZ027>028-280600-
BIG ISLAND OF HAWAII INTERIOR AND SUMMMITS-

CITY           SKY/WX    TMP DP  RH WIND       PRES   REMARKS
BRADSHAW FIELD PTCLDY    62  54  76 W10       30.36S
MK VISITOR CEN   N/A     55 -15   5 NE8         N/A
MAUNA KEA*       N/A     37 -15  10 N29         N/A  WCI  25
MAUNA LOA*       N/A     52  -8   8 MISG        N/A
MAUNA LOA 1*   NOT AVBL
PTA KIPUKA*      N/A     64  57  77 NW2G8       N/A
PTA RANGE 17*    N/A     73  68  83 SW3G12      N/A
PTA WEST*        N/A     66  61  82 W3G13       N/A
NENE CABIN*      N/A    N/A N/A N/A NE5G12      N/A
AHUMOA*          N/A     56  50  80 SE2         N/A
PTA PORTABLE*  NOT AVBL
PUU MALI*        N/A     66 N/A N/A E12G20      N/A
$$

HIC003-280600-
NORTHWEST ISLANDS-

CITY           SKY/WX    TMP DP  RH WIND       PRES   REMARKS
MIDWAY ISLAND  MOSUNNY   79  68  69 NE9       30.13S
MIDWAY NOS*      N/A     77 N/A N/A MISG      30.11S
FRENCH FRIGATE NOT AVBL
$$

PHZ110>124-180-280600-
BUOY REPORTS

STATION/POSITION TIME  TEMP    WIND        PRES    WAVE   SWELL
                       AIR SEA DIR/SP/G            HT/PER HT/DIR
                 (UTC) (F)     (DEG/KT/KT) (MB)    (FT/S) (FT/D)
BUOY 51001       0520   80 81  110/ 14/ 16 1019.0
BUOY 51101       0450   80 81   80/ 10/ 14 1019.2R   6/11   5/ 60
BUOY 51100       NOT AVBL
BUOY 51002       0520   79 79   70/ 19/ 23 1015.0
BUOY 51003       0450   80 80   50/ 14/ 16 1015.6R   7/ 8   5/100
BUOY 51004       0450      79   50/ 17/ 21 1015.8R   8/10   5/ 70
BARBERS PT BUOY  NOT AVBL
WAIMEA BAY BUOY  0502      78                N/A     4/10   2/ 40
KAILUA BAY BUOY  0504      80                N/A     7/11   3/ 60
LANAI BUOY       NOT AVBL
BARBERS PT 2     NOT AVBL
PAUWELA MAUI     0509      79                N/A     6/11   3/ 40
HILO             0527      79                N/A     6/11   3/ 40
KANEOHE BAY BUOY 0525      79                N/A     6/ 7   2/ 50
HANALEI KAUAI    0522      80                N/A     6/10   2/ 50
KAHULUI HARBOR   0506   79 81   60/ 15/ 20 1017.6
HONOLULU HARBOR  0506   80 81   80/  3/  6 1018.9
KILO NALU        NOT AVBL
HILO HARBOR      0506   78 79  310/  5/  7 1018.2
MOKUOLOE         0436   80 83   80/ 11/ 15 1018.4R
NAWILIWILI       0506   79 82   50/ 10/ 14 1018.5
WHOTS BUOY       NOT AVBL
BUOY 51028       NOT AVBL
$$

......................KEY........................................
  SKY/WX - SKY CONDITIONS/PRESENT WEATHER
  TMP    - TEMPERATURE IN FAHRENHEIT
  DWPT   - DEWPOINT IN FAHRENHEIT
  RH     - RELATIVE HUMIDITY IN PERCENT
  WIND   - DIRECTION AND SPEED /MPH FOR ISLANDS...KTS FOR BUOYS/
  PRES   - MEAN SEA LEVEL PRESSURE IN INCHES OF HG
  VSB    - VISIBILITY IN MILES
  HX     - HEAT INDEX
  WCI    - WIND CHILL INDEX
  VRB    - VARIABLE WIND DIRECTION
  N/A    - NOT AVAILABLE




USA.gov is the U.S. government's official web portal to all federal, state and local government web resources and services.